Temperature
16 16 16 16 15 16 16 16 16 16 16 16 16 15 15 15 15 15 15 15 15 15 15 15 15 15 15 15 15 15 15 15 15 15 15 15 15 15 15 15 15 15 15
16 16 15 15 15 15 15 15 15 15 15 15 15 15 15 15 15 15 15 15 15 15 15 15 15 15 15 15 15 15 14 14 15 15 15 15 15 15 15 15 15 15 15
16 15 15 15 15 15 15 15 15 15 15 15 15 15 15 15 15 15 15 15 15 14 14 14 14 14 14 14 14 14 14 14 14 14 14 14 14 14 14 14 14 14 14
16 15 15 15 15 15 15 15 15 15 15 15 15 15 14 14 14 14 14 14 14 14 14 14 14 14 14 14 14 14 14 14 14 14 14 14 14 14 14 14 14 14 14
15 15 15 15 15 15 15 15 15 15 15 15 14 14 14 14 14 14 14 14 14 14 14 14 13 13 14 13 13 13 14 14 14 14 14 14 14 14 14 14 13 13 13
15 15 15 15 15 15 14 14 14 14 14 14 14 14 14 14 14 14 14 14 14 14 13 13 13 13 13 13 13 13 13 13 13 13 13 13 13 13 13 13 13 13 13
15 15 15 15 15 14 14 14 14 14 14 14 14 14 13 13 13 13 13 13 13 13 13 13 13 13 13 13 13 13 13 13 13 13 13 13 13 13 13 13 13 13 13
15 15 15 15 15 14 14 14 14 14 14 14 14 14 13 13 13 13 13 13 13 13 13 13 13 13 13 13 13 13 13 13 13 13 13 13 13 13 13 13 13 13 13
15 15 15 15 14 14 14 14 14 14 14 14 14 14 13 13 13 13 13 13 13 13 13 13 13 13 13 13 13 13 13 12 12 12 12 12 12 12 12 12 13 13 12
15 15 14 14 14 14 14 14 14 14 14 14 13 13 13 13 13 12 12 12 13 13 13 13 13 12 12 12 12 12 12 12 12 12 12 12 12 12 12 12 12 12 12
14 14 14 14 14 14 14 14 14 14 14 13 13 13 13 13 13 13 12 12 12 12 12 12 12 12 12 12 12 12 12 12 12 12 12 12 12 12 12 12 12 12 12
14 14 14 14 14 14 14 14 14 14 13 13 13 13 13 13 13 13 13 12 12 12 12 12 12 12 12 12 12 12 12 12 12 12 12 12 12 12 12 12 12 12 11
14 14 14 14 14 14 14 14 14 13 13 13 13 13 13 13 13 13 13 12 12 12 12 12 12 12 12 11 11 11 11 11 11 11 11 11 11 11 11 11 11 11 11
14 14 14 14 14 14 14 13 13 13 13 13 13 13 13 13 13 13 13 12 12 12 12 12 12 11 11 11 11 11 11 11 11 11 11 11 11 11 11 11 11 11 11
14 14 14 14 14 13 13 13 13 13 13 13 13 13 12 12 12 12 12 12 12 12 11 11 11 11 11 11 11 11 11 11 11 11 11 11 11 11 11 11 11 11 11
13 13 13 13 13 13 13 13 13 13 13 13 12 12 12 12 12 12 12 12 12 12 11 11 11 11 11 11 11 11 11 11 11 11 11 11 11 11 11 11 11 11 11
13 13 13 13 13 13 13 13 13 13 13 12 12 12 12 12 12 12 12 12 11 11 11 11 11 11 11 11 11 10 10 10 10 10 10 10 10 10 10 10 11 11 11
13 13 13 13 13 13 13 13 13 13 12 12 12 12 12 12 12 12 12 11 11 11 11 11 11 11 11 10 10 10 10 10 10 10 10 10 10 10 10 10 10 10 11
13 13 12 13 13 13 12 12 12 12 12 12 12 12 12 12 12 11 11 11 11 11 11 11 11 10 10 10 10 10 10 10 10 10 10 10 10 10 10 10 10 10 10
12 12 12 12 12 12 12 12 12 12 12 12 12 12 12 11 11 11 11 11 11 11 11 10 10 10 10 10 10 10 10 10 10 10 10 10 10 10 10 10 10 10 10
12 12 12 12 12 12 12 12 12 12 12 12 11 11 11 11 11 11 11 11 10 10 10 10 10 10 10 10 9 9 9 9 9 9 9 9 9 9 9 9 9 9 9
12 12 12 12 12 12 12 12 11 11 11 11 11 11 11 11 11 11 10 10 10 10 10 10 10 10 9 9 9 9 9 9 9 9 9 9 9 9 9 9 9 9 9
12 12 12 11 11 11 11 11 11 11 11 11 11 10 11 10 10 10 10 10 10 10 10 10 10 9 9 9 9 9 9 9 9 9 9 9 9 9 9 9 9 9 9
11 11 11 11 11 11 11 11 11 11 11 10 10 10 10 10 10 10 10 10 10 9 9 9 9 9 9 9 9 8 8 8 9 8 8 8 8 8 9 8 8 8 8
11 11 11 11 11 11 10 10 10 10 10 10 10 10 10 10 10 9 9 9 9 9 9 9 9 9 8 8 8 8 8 8 8 8 8 8 8 8 8 8 8 8 8
11 10 10 10 10 10 10 10 10 10 10 10 10 9 9 9 9 9 9 9 9 9 9 9 9 8 8 8 8 8 8 8 8 8 8 8 8 8 8 8 8 8 8
Wind_Speed
3 2 2 3 3 5 5 5 5 5 5 6 7 7 6 6 6 6 6 7 8 8 9 9 9 9 8 8 8 7 6 5 5 5 5 5 4 4 4 4 4 3 4
4 3 3 3 3 4 5 5 4 4 4 5 5 5 5 6 6 7 6 6 7 8 8 8 9 9 8 8 7 6 6 5 5 5 5 5 5 5 5 4 4 4 4
5 4 3 2 3 5 6 6 5 5 5 5 5 5 4 5 5 6 6 6 6 7 8 8 8 8 8 7 7 6 6 5 5 5 5 4 5 5 5 4 4 4 4
7 5 3 2 3 5 5 4 4 4 4 4 3 3 3 4 5 5 6 6 6 6 8 9 9 8 7 7 6 6 5 5 5 4 4 4 4 4 4 4 5 5 5
7 6 3 3 4 4 4 4 3 3 4 3 3 3 3 3 3 4 5 6 6 6 6 7 8 8 7 6 6 6 5 4 3 4 4 4 4 4 4 4 4 5 5
6 6 4 4 5 4 3 3 4 3 3 2 3 4 3 3 3 3 3 4 5 5 5 4 5 5 6 6 5 5 4 3 3 3 3 4 4 4 4 4 4 4 5
6 6 4 3 4 4 3 3 3 4 2 2 3 3 4 4 3 2 2 3 3 3 4 4 4 4 3 3 4 4 4 3 3 3 4 4 4 4 4 4 4 4 4
5 5 5 3 4 4 4 3 3 2 1 2 3 3 2 3 3 3 2 2 2 2 2 3 3 3 2 2 2 3 2 2 3 3 3 3 4 4 3 4 4 4 3
4 5 5 4 4 4 4 3 3 4 2 1 1 3 3 2 1 3 3 2 1 1 1 2 3 2 1 1 1 1 2 2 2 2 3 3 3 2 2 2 3 3 2
3 4 5 5 4 4 4 3 3 3 3 2 0 1 2 3 3 0 3 3 2 1 0 1 1 2 2 1 1 0 1 1 1 2 2 2 2 1 1 2 2 2 1
1 3 5 5 4 4 4 3 3 3 3 3 2 1 2 2 2 3 1 2 2 2 1 0 1 2 2 1 1 1 1 1 2 2 1 1 1 1 1 1 1 1 1
0 1 3 4 4 4 4 3 3 3 3 3 2 2 2 2 2 2 2 1 1 2 2 1 1 2 2 2 1 1 1 1 2 2 1 1 0 0 1 1 1 1 1
1 2 2 3 3 3 4 4 3 3 3 3 2 2 2 2 2 3 3 1 1 2 2 1 1 2 2 2 2 2 1 1 2 2 1 1 1 1 1 1 2 2 2
3 3 3 2 4 4 4 4 3 3 3 3 3 3 2 1 2 2 3 3 1 1 2 2 2 1 2 3 3 3 2 2 3 2 1 1 1 1 1 2 2 3 3
3 3 3 3 3 4 4 4 3 3 3 3 3 3 2 1 1 2 3 3 4 2 2 3 2 2 2 3 3 3 3 2 3 2 2 2 2 2 1 1 2 3 3
3 3 3 3 2 3 4 4 3 3 4 3 2 3 2 1 1 1 2 2 2 3 2 3 2 2 2 2 3 3 3 2 3 3 3 4 4 3 3 3 3 2 3
4 4 4 3 3 3 4 4 4 4 4 3 2 3 2 2 2 1 2 2 2 2 2 2 1 1 0 1 1 2 3 3 3 3 4 4 4 4 4 4 3 3 3
4 4 4 3 3 3 4 5 5 5 5 4 3 3 2 2 2 2 2 2 2 2 3 2 1 1 1 1 1 2 2 3 4 4 4 5 5 5 5 5 5 4 4
3 3 4 4 3 3 4 4 5 5 5 5 4 4 3 3 2 2 2 2 2 2 2 2 1 1 1 1 1 1 1 2 3 4 5 5 5 5 5 5 5 5 5
4 4 4 4 4 3 4 4 4 4 4 3 3 3 3 4 4 4 3 3 2 2 2 2 1 1 1 1 0 0 2 2 2 3 3 4 5 6 6 5 5 5 5
3 4 4 3 3 3 4 4 4 5 4 3 3 2 3 4 5 4 3 3 4 3 2 2 1 1 1 0 1 1 2 2 2 2 2 3 3 3 4 5 5 5 5
2 3 4 4 3 3 4 6 6 4 4 4 3 2 2 3 4 4 4 5 6 5 4 3 2 3 3 3 2 2 1 1 2 2 1 3 2 2 4 5 5 5 5
3 3 3 3 3 3 4 6 6 5 4 4 3 3 2 2 2 1 2 2 3 5 6 5 4 5 4 4 3 2 2 3 3 2 1 3 2 3 4 5 6 6 6
3 3 3 3 3 3 4 5 5 4 3 3 3 4 3 2 2 2 2 1 2 2 3 4 5 5 5 4 5 4 5 3 2 1 1 2 3 3 3 4 6 6 6
3 3 3 4 3 3 3 4 4 3 2 1 1 2 3 3 3 2 2 2 1 2 2 3 4 4 5 5 4 2 2 1 2 2 2 2 2 2 2 3 5 6 6
3 3 3 3 4 3 3 4 4 3 3 2 1 1 2 3 2 3 3 3 3 3 2 1 1 2 1 2 3 3 4 3 2 3 2 2 1 0 2 2 2 3 3
Wind_Direction
117 100 83 68 69 81 85 83 81 76 74 78 84 89 85 83 75 69 69 85 103 109 109 106 100 96 95 92 89 93 101 99 96 97 102 102 103 106 102 97 92 88 91
123 109 91 73 70 84 91 93 93 87 77 80 75 80 86 86 82 79 72 72 89 100 103 102 98 95 93 92 86 81 83 87 90 92 92 93 96 95 94 94 90 84 83
116 112 98 85 82 90 91 90 83 81 75 74 68 68 77 80 83 82 80 76 79 87 90 94 94 90 87 86 83 81 80 79 80 81 82 82 88 92 89 88 85 83 83
109 106 99 92 98 90 90 87 84 82 73 70 67 69 76 80 80 84 82 81 80 76 75 82 85 84 82 80 77 77 79 78 78 81 79 82 83 90 92 88 85 83 80
108 110 110 107 103 93 85 96 84 99 92 74 71 67 65 73 75 85 79 80 88 86 76 74 77 79 78 78 75 73 72 72 75 85 88 89 88 89 92 94 92 86 79
107 104 103 101 100 91 82 94 98 85 94 96 81 61 46 49 60 72 86 88 89 94 91 84 76 71 72 72 68 65 65 67 76 85 90 93 90 88 87 90 91 89 83
116 110 108 104 101 103 106 109 107 90 72 87 82 49 24 31 43 47 70 85 85 96 104 104 94 78 67 63 61 60 58 68 80 87 89 86 81 84 83 83 86 86 80
134 133 129 124 116 109 102 101 106 100 83 80 111 100 43 7 7 14 31 73 73 94 102 110 109 99 74 62 55 57 59 67 82 95 93 90 90 81 80 80 77 79 72
144 141 140 132 128 124 128 128 129 125 132 57 100 131 136 196 305 344 4 20 34 73 91 111 108 113 110 86 64 62 68 73 110 107 100 101 97 94 96 87 76 74 73
142 149 147 141 139 135 137 146 136 135 137 143 56 60 129 151 151 317 336 343 358 45 37 109 129 130 130 141 172 180 102 93 132 128 113 97 91 83 88 93 72 61 68
133 162 154 146 148 147 153 147 137 137 149 157 156 126 88 77 104 138 228 315 342 331 332 170 162 152 154 155 182 200 144 149 159 145 151 114 68 47 49 64 52 20 7
70 131 148 150 156 158 163 167 163 158 162 153 148 147 149 147 161 146 171 228 272 304 325 341 153 179 176 176 218 253 197 182 177 162 158 151 245 331 19 8 340 327 331
214 198 153 167 172 178 178 169 157 163 166 159 165 167 162 170 162 152 148 172 223 300 335 339 267 185 189 183 222 244 217 208 188 186 196 201 238 273 309 321 312 311 312
202 197 171 175 182 178 177 165 157 171 159 158 158 149 144 165 154 157 157 149 115 344 343 295 304 235 217 203 224 229 219 224 201 187 189 211 219 256 301 308 310 308 310
195 188 182 181 190 181 176 167 167 175 159 160 157 147 142 166 156 149 146 152 153 178 264 275 282 271 237 210 214 206 215 229 217 207 216 228 233 240 262 286 302 305 310
185 188 195 187 196 196 182 168 176 170 152 162 161 147 143 157 147 136 147 147 150 164 209 241 240 258 235 232 232 212 224 247 231 230 233 239 244 246 254 264 272 286 297
185 186 191 187 188 193 185 174 181 170 162 168 167 155 168 159 147 148 144 142 141 144 178 259 275 301 277 263 244 226 236 242 243 243 246 251 254 256 257 262 266 276 280
186 186 181 180 189 191 185 180 182 176 171 175 182 168 190 174 159 165 158 167 176 173 168 203 267 304 270 248 236 236 248 260 250 252 251 255 260 261 258 260 258 262 266
175 177 176 183 192 194 190 187 180 176 175 177 178 179 195 176 186 192 180 184 191 183 162 170 215 244 276 310 332 298 288 282 271 268 261 261 267 267 261 261 264 259 257
179 187 189 191 194 193 187 180 174 170 173 179 183 184 191 188 194 195 192 191 178 157 144 149 191 242 262 298 94 263 303 299 287 279 273 270 270 267 261 259 264 263 258
191 186 178 183 192 194 190 176 170 170 174 177 189 206 215 205 200 194 184 182 166 158 155 164 202 228 239 223 233 227 241 288 289 273 280 271 265 266 268 264 264 269 264
186 172 181 186 192 204 194 179 168 168 171 174 192 220 231 222 217 205 194 188 178 175 185 191 207 214 229 221 217 217 216 279 286 285 253 279 240 256 258 252 262 265 266
176 177 184 180 191 213 192 180 168 156 164 178 185 198 221 220 206 204 212 208 204 204 200 193 203 219 217 214 201 216 216 219 238 257 200 271 271 256 257 258 258 259 262
177 183 185 183 177 191 177 173 156 145 153 175 187 192 194 217 201 178 178 209 238 244 231 211 207 221 222 207 201 210 214 226 259 275 168 239 267 257 267 266 260 257 260
184 184 180 175 174 191 178 165 147 145 156 189 201 190 194 212 235 195 163 172 225 282 280 241 228 227 232 228 202 171 185 188 261 270 214 204 254 265 271 272 272 266 259
194 186 181 182 180 191 187 177 160 155 167 191 214 220 209 207 212 183 174 177 212 252 264 289 285 281 261 234 216 193 194 199 215 249 234 195 222 242 285 281 268 272 269
Height
1526 1526 1527 1527 1527 1527 1527 1527 1527 1527 1527 1527 1527 1527 1527 1527 1527 1527 1527 1527 1528 1528 1528 1528 1528 1528 1528 1529 1529 1529 1530 1530 1530 1530 1530 1530 1530 1531 1531 1531 1531 1531 1531
1527 1527 1527 1527 1527 1528 1527 1528 1528 1527 1528 1528 1528 1528 1528 1528 1529 1528 1528 1529 1529 1529 1529 1529 1529 1529 1529 1529 1529 1529 1530 1530 1530 1530 1531 1531 1531 1531 1531 1530 1530 1530 1530
1528 1528 1528 1528 1528 1528 1528 1528 1528 1528 1528 1529 1528 1529 1529 1529 1529 1529 1529 1530 1530 1530 1530 1530 1530 1529 1529 1529 1530 1530 1530 1530 1530 1530 1530 1531 1531 1531 1530 1530 1530 1530 1530
1528 1528 1528 1528 1528 1528 1528 1528 1529 1529 1529 1529 1529 1529 1530 1530 1530 1530 1530 1530 1530 1530 1530 1530 1530 1530 1530 1530 1530 1530 1530 1530 1530 1530 1530 1530 1531 1530 1530 1530 1530 1530 1530
1529 1529 1529 1528 1529 1529 1529 1528 1529 1529 1529 1529 1530 1530 1530 1530 1530 1530 1531 1531 1531 1531 1530 1530 1530 1530 1530 1530 1530 1530 1530 1530 1530 1530 1530 1530 1530 1530 1530 1530 1530 1529 1529
1529 1529 1529 1529 1529 1529 1529 1529 1529 1529 1529 1529 1530 1530 1530 1531 1531 1531 1531 1531 1531 1531 1531 1531 1531 1530 1530 1530 1530 1530 1529 1529 1529 1529 1529 1530 1530 1530 1530 1530 1530 1529 1529
1529 1529 1529 1529 1528 1528 1528 1529 1529 1529 1529 1529 1530 1530 1531 1531 1531 1531 1531 1531 1531 1531 1531 1531 1531 1530 1530 1530 1530 1529 1529 1529 1529 1529 1529 1529 1529 1529 1529 1530 1529 1529 1529
1528 1528 1528 1528 1528 1528 1528 1528 1528 1528 1529 1529 1529 1529 1530 1532 1531 1531 1531 1531 1531 1531 1531 1530 1530 1530 1530 1529 1529 1529 1529 1529 1528 1528 1528 1529 1529 1529 1529 1529 1529 1529 1528
1528 1528 1527 1527 1527 1527 1527 1527 1528 1528 1528 1529 1529 1529 1530 1530 1530 1531 1530 1530 1530 1530 1530 1530 1530 1530 1529 1529 1529 1529 1528 1528 1528 1528 1528 1528 1528 1528 1528 1528 1528 1528 1528
1526 1527 1527 1527 1527 1527 1527 1527 1527 1527 1528 1527 1528 1528 1529 1529 1529 1530 1530 1530 1530 1529 1529 1529 1529 1529 1528 1528 1528 1528 1527 1527 1527 1527 1527 1528 1528 1528 1528 1527 1527 1527 1527
1525 1525 1525 1526 1526 1526 1526 1526 1526 1527 1527 1527 1527 1527 1527 1528 1528 1528 1529 1529 1529 1529 1529 1528 1528 1528 1528 1528 1527 1527 1527 1527 1527 1527 1527 1527 1527 1527 1527 1526 1526 1526 1526
1524 1524 1524 1524 1524 1525 1525 1525 1525 1526 1526 1526 1526 1527 1527 1527 1527 1527 1527 1527 1528 1528 1528 1527 1527 1527 1527 1527 1526 1526 1526 1526 1526 1526 1526 1526 1526 1526 1525 1525 1525 1525 1525
1522 1522 1522 1522 1523 1523 1524 1524 1524 1524 1525 1525 1525 1526 1526 1526 1526 1526 1526 1526 1526 1526 1526 1526 1526 1526 1526 1526 1525 1525 1525 1525 1525 1525 1525 1524 1524 1524 1524 1524 1524 1524 1524
1520 1520 1520 1521 1521 1521 1522 1522 1522 1523 1523 1524 1524 1524 1525 1525 1525 1525 1526 1525 1525 1525 1525 1525 1525 1525 1525 1524 1524 1524 1524 1524 1523 1523 1523 1523 1523 1523 1523 1523 1522 1522 1522
1517 1518 1519 1519 1519 1519 1520 1520 1521 1521 1521 1522 1522 1523 1523 1524 1524 1524 1524 1524 1525 1523 1524 1524 1524 1524 1523 1523 1523 1522 1523 1522 1522 1522 1521 1521 1521 1521 1521 1521 1521 1521 1521
1515 1515 1516 1516 1517 1517 1518 1518 1519 1519 1519 1520 1520 1521 1521 1522 1522 1522 1522 1522 1523 1523 1522 1522 1522 1522 1522 1522 1522 1521 1521 1521 1521 1520 1520 1520 1520 1520 1519 1519 1519 1519 1519
1512 1512 1513 1513 1514 1514 1515 1515 1516 1517 1517 1518 1518 1519 1519 1520 1520 1520 1520 1520 1521 1521 1520 1521 1521 1521 1521 1521 1520 1520 1520 1520 1519 1519 1519 1518 1518 1518 1518 1518 1517 1517 1517
1509 1509 1510 1511 1511 1511 1512 1512 1513 1514 1515 1515 1516 1516 1517 1518 1518 1518 1518 1518 1518 1519 1519 1518 1519 1519 1519 1519 1518 1518 1518 1518 1518 1517 1517 1517 1516 1516 1516 1516 1515 1515 1515
1506 1507 1507 1508 1509 1509 1509 1509 1510 1511 1512 1513 1513 1514 1514 1515 1515 1516 1516 1516 1516 1517 1517 1516 1516 1517 1517 1517 1516 1516 1516 1516 1516 1515 1515 1515 1515 1514 1514 1513 1513 1513 1513
1503 1504 1505 1505 1506 1506 1506 1506 1507 1508 1509 1510 1511 1511 1512 1512 1513 1513 1513 1514 1514 1514 1514 1514 1514 1514 1514 1514 1514 1514 1514 1514 1513 1513 1513 1512 1512 1512 1512 1511 1511 1511 1510
1500 1501 1502 1502 1503 1503 1503 1504 1504 1505 1506 1507 1508 1508 1509 1509 1510 1510 1511 1511 1511 1512 1512 1512 1512 1512 1512 1512 1512 1511 1511 1511 1511 1511 1510 1510 1510 1510 1509 1509 1509 1509 1508
1496 1498 1498 1499 1499 1500 1500 1501 1502 1502 1503 1504 1504 1505 1506 1506 1507 1507 1508 1508 1509 1509 1509 1509 1509 1509 1509 1509 1509 1509 1509 1508 1508 1509 1508 1507 1507 1507 1507 1507 1506 1506 1506
1493 1494 1495 1495 1496 1497 1498 1498 1499 1500 1500 1501 1501 1502 1503 1503 1504 1504 1504 1505 1506 1506 1507 1507 1506 1506 1506 1507 1507 1507 1506 1506 1506 1506 1505 1504 1504 1504 1504 1504 1504 1503 1503
1490 1491 1491 1492 1493 1494 1495 1495 1496 1497 1497 1498 1498 1499 1499 1500 1500 1501 1501 1502 1502 1502 1503 1503 1503 1503 1504 1504 1504 1504 1504 1503 1503 1503 1503 1502 1501 1501 1501 1501 1500 1500 1500
1486 1487 1488 1489 1490 1491 1492 1493 1493 1493 1494 1495 1495 1496 1496 1496 1497 1497 1498 1498 1498 1499 1499 1500 1500 1500 1500 1500 1500 1500 1500 1500 1499 1499 1499 1499 1498 1497 1498 1497 1497 1497 1497
1483 1484 1485 1486 1486 1488 1489 1489 1490 1490 1490 1491 1492 1492 1493 1493 1493 1494 1494 1494 1494 1495 1495 1496 1496 1496 1496 1496 1497 1497 1497 1497 1496 1496 1496 1496 1495 1495 1494 1494 1494 1494 1494